Flag for Germany Weather past 2 weeks in Eberswalde, Brandenburg, Germany

Now
48 °F

Clear.


Feels Like: 48 °F
Forecast: 49 / 70 °F
Wind: 1 mph from North

Location: Berlin-Tegel

Current Time: Aug 21, 2014 at 4:51:07 AM

Latest Report: Aug 21, 2014 at 4:20 AM


Visibility: 10 mi

Pressure: 29.98 "Hg

Humidity: 94%

Dew point: 46 °F

Location of EberswaldeLocation

Historic Weather in Eberswalde — Graph

°F

Eberswalde temperature yesterday

Maximum temperature yesterday: 66 °F (at 4:20 PM)
Minimum temperature yesterday: 50 °F (at 3:50 AM)
Average temperature yesterday: 57 °F

Past Weeks' High & Low Weather Summary

 TemperatureHumidityPressure
High82 °F (Aug 9, 11:20 AM)100% (Aug 8, 6:50 AM)30.07 "Hg (Aug 8, 6:50 AM)
Low48 °F (Aug 21, 2:20 AM)24% (Aug 6, 5:50 PM)29.59 "Hg (Aug 18, 2:50 PM)
Average65 °F64%29.85 "Hg
* Reported Aug 6 3:20 AM — Aug 21 3:50 AM, Eberswalde, Weather by CustomWeather, © 2014

Note: Actual official high and low records may vary slightly from our data, if they occured in-between our weather recording intervals... More about our weather records

Advertising

Eberswalde weather history for previous 24 hours

 ConditionsComfort  
Time TempWeatherWind HumidityBarometerVisibility
3:50 AM
Aug 21
48 °FClear.1 mph94%29.98 "Hg10 mi
3:20 AM48 °FClear.1 mph87%29.98 "Hg10 mi
2:50 AM48 °FClear.1 mph87%29.98 "Hg10 mi
2:20 AM48 °FClear.1 mph87%29.98 "Hg10 mi
1:50 AM50 °FClear.2 mph82%29.98 "Hg10 mi
1:20 AM50 °FClear.2 mph82%29.98 "Hg10 mi
12:50 AM50 °FClear.2 mph82%29.98 "Hg10 mi
12:20 AM52 °FClear.1 mph77%29.98 "Hg10 mi
11:50 PM
Aug 20
54 °FClear.2 mph72%29.98 "Hg10 mi
11:20 PM54 °FClear.5 mph72%29.98 "Hg10 mi
10:50 PM54 °FClear.5 mph72%29.98 "Hg10 mi
10:20 PM54 °FClear.6 mph72%29.98 "Hg10 mi
9:50 PM55 °FClear.3 mph67%29.98 "Hg10 mi
9:20 PM57 °FSunny.5 mph63%29.98 "Hg10 mi
8:50 PM59 °FSunny.8 mph59%29.98 "Hg10 mi
8:20 PM61 °FPassing clouds.14 mph55%29.95 "HgN/A
7:50 PM63 °FScattered clouds.8 mph49%29.95 "HgN/A
7:20 PM63 °FPassing clouds.9 mph49%29.95 "HgN/A
6:50 PM63 °FPassing clouds.9 mph45%29.95 "HgN/A
6:20 PM64 °FPassing clouds.14 mph46%29.95 "HgN/A
5:50 PM64 °FSunny.14 mph46%29.95 "Hg10 mi
5:20 PM64 °FSunny.15 mph43%29.95 "Hg10 mi
4:50 PM66 °FPassing clouds.16 mph43%29.95 "HgN/A
4:20 PM66 °FPassing clouds.15 mph43%29.95 "HgN/A
3:50 PM64 °FPassing clouds.17 mph43%29.95 "HgN/A
3:20 PM64 °FPassing clouds.16 mph46%29.95 "HgN/A
2:50 PM64 °FPassing clouds.14 mph49%29.95 "HgN/A
2:20 PM64 °FScattered clouds.15 mph49%29.95 "HgN/A
1:50 PM64 °FScattered clouds.17 mph56%29.95 "HgN/A
1:20 PM63 °FScattered clouds.16 mph49%29.95 "HgN/A
12:50 PM63 °FScattered clouds.16 mph52%29.95 "HgN/A
12:20 PM61 °FScattered clouds.16 mph55%29.95 "HgN/A
11:50 AM61 °FPartly sunny.15 mph63%29.95 "HgN/A
11:20 AM59 °FPartly sunny.15 mph63%29.95 "HgN/A
10:50 AM57 °FPartly sunny.15 mph67%29.95 "HgN/A
10:20 AM55 °FPartly sunny.16 mph72%29.95 "HgN/A
9:50 AM55 °FPartly sunny.17 mph72%29.92 "HgN/A
9:20 AM54 °FPartly sunny.16 mph77%29.92 "HgN/A
8:50 AM52 °FPartly sunny.16 mph82%29.92 "HgN/A
8:20 AM52 °FPartly sunny.15 mph82%29.92 "HgN/A
7:50 AM52 °FPartly sunny.14 mph82%29.92 "HgN/A
7:20 AM50 °FPartly sunny.14 mph82%29.89 "HgN/A
6:50 AM50 °FPassing clouds.13 mph88%29.89 "HgN/A
6:20 AM50 °FPassing clouds.13 mph88%29.89 "HgN/A
5:50 AM50 °FPassing clouds.12 mph88%29.89 "HgN/A
5:20 AM50 °FPassing clouds.10 mph88%29.86 "HgN/A
4:50 AM50 °FPassing clouds.14 mph88%29.86 "HgN/A
4:20 AM50 °FPassing clouds.13 mph88%29.86 "HgN/A
Weather by CustomWeather, © 2014

See weather overviewHow to use our weather pages